Theta_e
331 332 330 330 331 331 330 328 328 328 327 327 326 325 327 327 326 328 327 327 329 328 327 327 326 326 325 325 326 323 323 325 324 325 326 328 329 330 330 329 332 332
331 330 329 330 329 329 329 330 328 328 327 326 326 325 326 326 326 327 326 327 326 326 326 326 326 325 325 324 325 324 323 324 322 321 324 324 324 325 327 328 330 331
330 329 328 328 328 328 328 328 328 328 326 325 326 326 325 326 326 327 328 327 326 325 326 326 326 326 325 324 324 324 323 323 322 323 324 322 324 325 325 326 327 330
330 329 328 328 328 327 327 325 324 325 325 324 324 325 324 324 326 326 326 325 326 325 325 326 326 325 323 323 324 322 323 322 322 324 322 322 322 323 325 327 327 328
329 328 328 327 326 326 325 324 323 324 324 325 324 324 324 324 326 325 326 325 325 324 324 324 324 324 324 323 324 323 323 321 323 324 323 322 322 322 323 327 328 328
328 327 326 325 325 323 323 323 322 323 324 324 325 324 325 326 325 324 325 324 323 322 323 323 322 323 323 323 324 324 323 321 322 323 320 321 321 321 319 325 327 327
326 326 325 325 325 325 325 324 323 324 325 325 324 323 324 325 325 325 323 324 322 322 321 322 322 323 324 323 322 322 323 322 321 320 319 320 322 322 321 323 325 325
326 326 325 324 325 325 325 323 324 324 325 324 324 323 325 324 324 324 324 323 322 321 322 321 322 322 323 322 321 322 322 322 322 320 320 321 323 320 321 321 325 324
326 325 324 324 324 324 324 323 324 324 324 324 323 323 324 325 324 324 323 322 322 321 320 321 321 321 323 322 322 321 320 321 323 322 321 322 322 320 318 321 322 323
325 325 324 324 324 324 324 324 324 323 323 324 323 323 322 324 324 322 321 322 321 320 320 320 321 322 322 321 320 320 320 320 320 321 322 322 320 319 319 321 321 321
326 325 324 324 325 324 324 323 323 323 323 323 324 323 323 323 321 321 321 320 321 319 319 320 321 321 321 322 323 323 322 323 322 320 322 322 323 323 323 322 323 322
325 325 324 324 325 324 324 322 323 323 323 324 323 322 322 322 321 320 320 320 321 320 320 320 322 323 321 322 322 323 324 324 324 324 322 321 323 324 323 325 323 322
324 325 325 323 323 322 322 321 321 323 322 322 323 323 320 319 320 320 322 321 321 322 322 322 323 323 325 325 324 324 324 324 324 325 325 326 325 325 325 326 325 324
321 320 319 320 319 320 320 320 320 321 322 323 323 323 322 321 320 320 321 322 323 323 324 325 325 325 325 326 326 326 326 326 325 325 326 327 327 327 328 327 326 325
321 321 322 321 320 320 322 321 322 321 320 320 321 322 323 323 321 321 320 320 321 325 325 327 327 328 327 327 326 326 327 327 326 325 326 326 326 326 327 327 326 327
319 317 318 320 320 321 322 321 319 320 321 320 320 320 321 320 320 320 320 321 321 321 324 325 326 327 319 312 316 326 328 328 327 326 326 326 326 326 326 326 328 328
318 317 317 316 316 317 316 316 317 319 320 319 320 319 320 320 320 319 320 321 321 321 321 323 324 323 299 296 298 308 324 328 326 327 327 326 326 326 326 327 327 326
317 317 318 318 318 318 318 318 319 319 319 319 319 319 318 319 319 318 319 320 321 321 322 323 325 305 298 296 297 299 308 327 328 327 327 326 326 326 326 326 326 326
316 317 317 318 318 318 318 317 318 318 318 317 317 317 317 318 318 319 320 321 321 320 321 321 324 298 297 295 296 297 298 310 325 326 326 326 326 326 326 326 326 326
318 318 317 316 317 318 318 318 318 318 317 316 317 317 317 317 318 320 319 320 320 321 320 321 324 299 295 295 296 295 294 303 322 324 325 326 326 326 326 326 326 325
310 314 315 315 315 316 316 316 317 317 318 317 319 320 320 320 321 320 320 320 321 321 322 323 323 295 295 294 294 294 293 301 319 320 322 323 324 325 325 325 325 325
303 304 305 307 308 309 311 313 314 314 316 317 319 320 320 321 321 322 321 320 320 321 321 322 318 292 294 293 293 293 293 312 317 318 320 321 322 323 323 324 324 325
299 300 301 303 304 304 304 306 310 312 313 316 319 318 318 318 319 319 320 320 320 320 321 320 321 300 293 293 293 292 299 316 316 317 316 317 319 320 321 323 324 324
299 299 299 300 300 301 302 303 304 305 307 311 315 315 314 314 317 318 319 319 318 318 316 318 319 301 292 292 293 291 299 314 315 316 316 316 318 319 320 321 321 314
299 299 299 298 298 299 300 301 302 303 303 304 307 310 310 311 312 314 313 312 312 313 308 313 315 303 293 293 292 292 300 310 312 315 315 316 317 318 319 319 321 316
298 298 298 298 298 298 299 299 300 300 300 301 302 305 306 306 307 309 309 308 309 311 309 309 311 311 300 291 292 292 292 304 310 314 317 318 318 317 318 320 319 320
Wind_Speed
7 6 7 7 6 7 7 7 5 5 4 4 4 3 4 4 4 4 4 3 4 4 4 4 4 3 2 2 2 2 3 3 3 2 2 2 2 3 3 3 4 4
8 7 6 6 6 5 6 6 7 6 5 3 3 4 3 5 4 4 5 5 4 5 4 4 4 4 4 3 2 3 3 4 4 2 3 4 3 2 2 2 3 3
8 8 8 9 8 8 7 5 4 4 5 4 4 4 5 4 5 4 4 5 6 5 4 4 4 4 4 4 3 3 4 4 5 4 4 4 2 2 2 2 2 3
8 8 8 8 8 8 7 6 5 4 4 5 4 4 5 4 5 6 5 5 5 5 4 4 4 4 4 5 4 4 4 4 4 4 5 4 3 2 2 2 3 3
9 7 7 7 7 8 8 8 8 6 6 5 5 5 6 6 6 6 5 5 5 5 5 5 4 4 4 4 4 4 4 4 3 3 4 4 3 3 2 2 4 5
6 7 7 7 7 8 7 8 8 8 7 7 6 5 6 6 6 6 6 6 5 6 5 5 5 4 5 5 4 4 3 4 3 4 5 4 4 3 2 3 5 5
8 7 7 6 7 8 8 7 7 7 7 6 6 5 6 6 6 6 6 6 6 6 6 6 6 5 4 5 5 4 4 4 4 4 5 4 3 4 3 3 4 6
8 7 7 6 7 7 6 7 7 6 7 7 7 6 6 7 6 5 5 6 5 5 5 5 6 6 5 5 5 5 4 2 3 4 5 4 3 4 4 2 2 4
8 7 7 7 8 6 7 7 6 6 7 8 7 6 5 5 6 6 6 5 5 5 5 5 5 5 4 5 5 5 5 4 3 3 4 5 5 4 4 4 4 4
9 8 9 8 8 6 7 6 6 6 6 7 7 6 6 4 5 6 5 5 5 5 5 5 5 5 5 5 6 5 5 5 3 3 3 3 4 5 4 3 4 4
9 9 10 9 8 7 7 6 6 6 5 6 6 6 5 5 4 4 5 6 5 6 6 6 5 6 5 5 4 4 4 3 3 3 3 2 2 3 3 4 4 4
8 8 9 10 8 6 7 6 6 5 6 5 6 6 4 4 6 5 6 6 6 6 6 6 5 5 5 5 5 4 4 3 2 2 2 2 2 1 2 2 3 4
5 6 6 8 8 5 3 3 4 4 6 6 5 5 5 4 3 3 3 5 6 6 5 5 5 4 4 4 5 4 4 3 3 3 3 2 1 1 1 1 2 3
6 7 10 7 9 6 4 4 4 3 3 3 4 5 5 6 6 5 3 1 4 6 5 5 5 4 4 4 4 4 4 3 3 3 3 3 2 1 1 1 2 2
6 5 7 3 6 7 7 5 5 4 4 3 3 4 3 4 4 4 4 2 1 2 4 4 4 4 3 4 4 4 4 4 4 4 4 4 3 2 2 2 3 3
6 7 7 5 4 5 5 5 3 4 3 2 3 3 4 3 3 1 1 3 3 3 2 2 1 1 3 4 2 3 4 3 4 5 5 5 5 4 3 2 2 2
6 6 6 6 7 7 4 4 2 2 3 2 2 2 4 4 3 3 2 1 2 3 3 3 2 1 4 5 5 3 2 3 4 5 5 5 6 6 5 5 4 3
5 7 7 5 5 4 5 3 2 3 1 2 3 3 3 4 4 3 3 3 2 2 3 2 2 5 5 3 2 3 1 3 4 4 5 5 6 6 5 5 5 4
6 7 6 5 4 6 5 4 2 2 3 3 2 2 4 3 3 3 3 3 3 3 2 2 2 6 7 6 6 4 1 2 3 4 5 5 5 6 5 5 5 4
8 8 7 6 5 5 5 5 3 3 3 3 3 3 2 2 2 2 2 2 2 3 3 2 2 6 8 7 7 6 4 1 2 2 3 3 4 4 4 4 5 5
8 8 9 8 8 8 7 7 6 4 4 3 3 3 3 4 4 3 2 2 2 2 1 1 1 6 5 6 6 6 6 3 3 3 3 2 3 3 4 4 4 5
9 9 8 8 8 7 8 8 7 6 5 4 4 4 3 3 2 2 3 3 3 2 1 0 4 6 6 6 6 5 5 3 3 3 4 4 3 3 3 4 5 5
9 9 9 9 9 9 8 7 7 6 5 3 5 6 6 5 4 3 2 3 3 3 2 2 2 4 5 5 5 6 4 1 2 2 3 4 4 4 4 4 4 6
10 9 10 9 10 10 9 8 7 6 6 4 6 7 7 6 5 5 5 5 6 6 5 4 4 5 4 4 2 1 4 2 2 2 3 4 4 4 4 4 5 4
9 9 9 8 8 8 7 8 8 7 6 6 5 5 5 4 4 6 6 6 6 5 5 4 4 4 3 3 2 2 2 2 2 2 4 4 3 3 4 4 4 5
7 8 8 8 8 7 7 6 4 6 7 7 8 6 5 5 5 6 7 6 5 5 5 5 5 4 4 4 3 3 1 2 2 4 4 4 3 3 4 4 4 4
Wind_Direction
151 153 147 152 150 149 154 155 162 163 160 149 144 144 147 130 136 130 120 120 119 122 125 122 123 120 115 122 128 122 103 102 103 112 130 147 127 149 162 176 191 204
159 152 144 143 143 152 160 163 161 165 154 147 128 128 122 135 138 142 140 133 131 126 129 130 129 131 136 126 112 104 98 91 91 88 104 101 109 128 136 160 180 175
158 154 153 157 159 163 162 153 148 147 137 133 123 128 133 136 140 144 143 141 137 133 132 131 128 123 117 112 109 100 100 98 93 92 87 85 83 98 114 145 146 170
162 160 161 157 152 154 152 147 142 136 129 136 142 134 137 143 146 147 145 149 134 132 133 131 124 116 112 117 114 98 93 88 94 106 102 96 89 99 111 120 128 141
162 158 157 153 150 148 152 154 154 156 153 138 136 142 144 149 155 155 154 146 136 137 137 131 125 116 114 110 108 107 103 103 117 119 103 96 88 95 105 123 126 123
157 160 157 158 153 154 159 156 153 154 148 150 154 153 151 156 160 162 156 147 146 140 135 132 124 114 111 110 103 96 104 104 97 95 92 89 98 102 113 124 127 125
159 155 155 158 159 165 159 152 150 155 156 147 143 154 151 158 165 161 155 151 148 146 139 134 126 119 117 114 109 103 91 92 98 99 101 95 95 95 102 112 110 116
158 157 161 163 162 163 156 153 155 157 144 147 156 154 164 158 162 152 153 152 145 137 129 129 128 125 125 119 113 106 95 81 100 106 102 101 91 87 89 90 98 113
152 157 161 163 162 164 163 159 153 145 153 158 157 157 168 159 151 153 152 150 141 133 134 136 133 129 130 126 120 118 115 108 106 114 119 120 114 110 109 114 114 108
160 160 162 164 169 170 165 156 150 152 163 163 157 159 163 136 134 141 143 147 139 137 144 145 142 138 139 137 136 133 130 127 130 133 128 119 118 125 127 124 116 116
162 161 165 170 172 165 158 151 153 156 160 160 153 161 155 135 127 133 140 151 149 152 152 156 156 149 142 135 130 132 128 125 130 133 136 131 116 120 128 128 130 126
167 165 166 170 165 155 151 154 152 154 154 154 160 153 133 133 144 153 158 163 161 159 160 159 158 154 149 142 134 132 127 118 119 129 137 139 130 123 128 126 126 130
164 151 117 77 51 35 79 107 127 145 158 155 151 141 135 130 138 146 156 160 162 160 159 156 156 155 145 139 137 137 138 138 143 148 142 128 122 131 123 119 130 133
155 103 96 121 134 132 117 107 107 120 121 123 138 142 153 155 156 172 162 154 160 167 157 157 157 159 153 146 142 141 143 148 155 163 153 140 141 146 164 165 165 163
67 77 113 181 122 122 113 110 117 111 109 110 116 118 131 143 141 159 148 146 130 129 146 152 154 151 157 158 154 155 159 158 160 168 171 160 159 164 183 189 183 183
91 95 110 108 79 74 81 93 44 96 67 86 113 114 114 103 107 91 145 165 154 117 99 98 96 114 129 156 181 171 169 159 160 171 178 178 174 175 184 202 210 205
80 89 96 97 120 129 106 119 170 356 68 90 63 77 108 103 107 132 151 175 161 145 130 133 136 91 139 166 159 148 178 182 186 180 180 187 191 195 195 190 195 202
60 79 81 84 91 95 111 59 118 131 149 128 135 130 102 106 129 150 157 162 163 145 136 132 142 106 129 142 158 160 235 220 198 194 191 198 204 208 210 201 199 203
103 95 90 89 95 103 114 150 116 107 92 96 91 67 74 91 141 169 162 156 160 147 122 127 181 124 133 136 149 151 126 286 218 216 211 211 212 216 219 213 207 209
92 91 78 75 71 88 94 97 91 70 67 66 85 93 100 128 173 153 141 151 139 129 143 163 211 127 142 146 144 136 114 167 246 249 252 240 230 224 222 220 215 219
54 73 77 76 81 78 82 89 93 92 78 73 91 120 162 171 166 162 155 141 119 108 160 196 79 108 129 134 137 141 135 164 215 231 247 250 248 240 236 232 224 226
38 49 51 59 59 59 72 74 71 70 75 83 102 114 117 121 111 115 120 123 131 135 160 341 84 92 113 126 139 149 160 213 222 230 238 241 245 242 243 237 233 231
40 46 48 48 52 56 51 56 56 50 46 48 91 82 80 72 63 63 73 99 106 94 54 40 63 102 104 114 129 149 190 215 223 229 244 255 254 257 246 236 234 232
36 44 52 49 51 51 51 49 49 43 32 23 66 71 65 57 54 59 50 40 35 37 29 25 34 58 52 67 79 103 312 288 265 259 259 265 261 242 246 246 245 231
32 34 39 44 50 44 40 50 51 42 28 18 30 72 80 78 68 68 56 46 44 54 28 37 57 74 82 91 99 162 250 276 266 270 270 257 248 244 221 240 244 210
34 39 38 36 40 41 35 31 32 51 41 37 15 13 41 51 66 79 79 65 57 65 76 64 61 79 108 139 151 159 277 294 290 282 278 272 253 271 279 260 238 252